When you browse on this site, cookies collect data to enhance your experience and personalize the content and advertising you see.
Visit our Privacy Policy to learn more. By continuing to use the site, you agree to this use of cookies and data.
  • In United Kingdom
  • List of Countries
  • For 7 days
  • Water Temperature
  • Satellite Maps
  • Weather Map
  • Weather Widgets
  • user-avatar
    Login

    Hourly Weather Liverpool

    Today, 23 April, Tuesday

    Time Temperature Precipitation Wind Pressure Humidity
    00:00 +17°C° 0 mm 4 mps 750 mmHg 65%
    01:00 +16°C° 0 mm 3 mps 749 mmHg 68%
    02:00 +14°C° 0 mm 3 mps 749 mmHg 71%
    03:00 +14°C° 0 mm 2 mps 749 mmHg 75%
    04:00 +14°C° 0 mm 2 mps 749 mmHg 73%
    05:00 +14°C° 0 mm 2 mps 749 mmHg 72%
    06:00 +14°C° 0 mm 2 mps 748 mmHg 70%
    07:00 +15°C° 0 mm 2 mps 748 mmHg 67%
    08:00 +16°C° 0 mm 3 mps 748 mmHg 63%
    09:00 +18°C° 0 mm 4 mps 748 mmHg 60%
    10:00 +19°C° 0 mm 4 mps 748 mmHg 58%
    11:00 +20°C° 0 mm 4 mps 747 mmHg 55%
    12:00 +21°C° 0 mm 5 mps 747 mmHg 53%
    13:00 +22°C° 0 mm 5 mps 747 mmHg 52%
    14:00 +22°C° 0 mm 5 mps 746 mmHg 52%
    15:00 +22°C° 0 mm 5 mps 746 mmHg 52%
    16:00 +21°C° 0 mm 5 mps 746 mmHg 55%
    17:00 +20°C° 0 mm 5 mps 746 mmHg 59%
    18:00 +19°C° 0 mm 5 mps 746 mmHg 62%
    19:00 +16°C° 0 mm 5 mps 746 mmHg 64%
    20:00 +15°C° 0 mm 4 mps 746 mmHg 65%
    21:00 +14°C° 0 mm 4 mps 746 mmHg 67%
    22:00 +13°C° 0 mm 4 mps 746 mmHg 70%
    23:00 +12°C° 0 mm 4 mps 746 mmHg 73%

    Tomorrow, 24 April, Wednesday

    Time Temperature Precipitation Wind Pressure Humidity
    00:00 +11°C° 0 mm 4 mps 745 mmHg 76%
    01:00 +11°C° 0 mm 4 mps 745 mmHg 79%
    02:00 +11°C° 0 mm 4 mps 744 mmHg 81%
    03:00 +10°C° 0 mm 4 mps 744 mmHg 83%
    04:00 +10°C° 0 mm 4 mps 744 mmHg 84%
    05:00 +11°C° 0 mm 4 mps 744 mmHg 85%
    06:00 +11°C° 0 mm 4 mps 743 mmHg 86%
    07:00 +12°C° 0 mm 5 mps 743 mmHg 83%
    08:00 +13°C° 0 mm 5 mps 742 mmHg 79%
    09:00 +14°C° 0 mm 5 mps 742 mmHg 76%
    10:00 +15°C° 0 mm 6 mps 741 mmHg 74%
    11:00 +16°C° 0 mm 6 mps 741 mmHg 72%
    12:00 +17°C° 0 mm 6 mps 740 mmHg 70%
    13:00 +17°C° 0.9 mm 6 mps 740 mmHg 73%
    14:00 +16°C° 0.9 mm 7 mps 740 mmHg 76%
    15:00 +16°C° 0.9 mm 7 mps 741 mmHg 80%
    16:00 +15°C° 0.2 mm 6 mps 741 mmHg 77%
    17:00 +14°C° 0.2 mm 5 mps 742 mmHg 74%
    18:00 +13°C° 0.2 mm 4 mps 742 mmHg 72%
    19:00 +12°C° 0 mm 4 mps 743 mmHg 74%
    20:00 +12°C° 0 mm 3 mps 744 mmHg 76%
    21:00 +11°C° 0 mm 3 mps 744 mmHg 78%
    22:00 +10°C° 0 mm 3 mps 745 mmHg 79%
    23:00 +10°C° 0 mm 4 mps 745 mmHg 80%

    Day after tomorrow, 25 April, Thursday

    Time Temperature Precipitation Wind Pressure Humidity
    00:00 +8°C° 0 mm 4 mps 745 mmHg 81%
    01:00 +8°C° 0 mm 4 mps 745 mmHg 82%
    02:00 +7°C° 0 mm 4 mps 744 mmHg 82%
    03:00 +7°C° 0 mm 4 mps 744 mmHg 82%
    04:00 +8°C° 0.1 mm 5 mps 744 mmHg 83%
    05:00 +8°C° 0.1 mm 5 mps 744 mmHg 84%
    06:00 +8°C° 0.1 mm 6 mps 744 mmHg 85%
    07:00 +9°C° 0.1 mm 6 mps 744 mmHg 83%
    08:00 +10°C° 0.1 mm 5 mps 744 mmHg 80%
    09:00 +10°C° 0.1 mm 5 mps 744 mmHg 78%
    10:00 +12°C° 0.5 mm 5 mps 745 mmHg 75%
    11:00 +12°C° 0.5 mm 5 mps 746 mmHg 71%
    12:00 +12°C° 0.5 mm 5 mps 746 mmHg 68%
    13:00 +13°C° 0.8 mm 5 mps 747 mmHg 66%
    14:00 +13°C° 0.8 mm 5 mps 747 mmHg 65%
    15:00 +13°C° 0.8 mm 4 mps 748 mmHg 63%
    16:00 +13°C° 0.5 mm 4 mps 748 mmHg 66%
    17:00 +12°C° 0.5 mm 4 mps 748 mmHg 68%
    18:00 +12°C° 0.5 mm 3 mps 749 mmHg 71%
    19:00 +11°C° 0.1 mm 3 mps 749 mmHg 74%
    20:00 +10°C° 0.1 mm 3 mps 750 mmHg 77%
    21:00 +9°C° 0.1 mm 3 mps 750 mmHg 79%
    22:00 +8°C° 0 mm 3 mps 751 mmHg 81%
    23:00 +8°C° 0 mm 3 mps 751 mmHg 82%

    26 April, Friday

    Time Temperature Precipitation Wind Pressure Humidity
    00:00 +7°C° 0 mm 4 mps 751 mmHg 84%
    01:00 +7°C° 0 mm 3 mps 751 mmHg 85%
    02:00 +7°C° 0 mm 3 mps 752 mmHg 86%
    03:00 +5°C° 0 mm 3 mps 752 mmHg 86%
    04:00 +5°C° 0 mm 3 mps 752 mmHg 86%
    05:00 +5°C° 0 mm 3 mps 752 mmHg 86%
    06:00 +5°C° 0 mm 3 mps 753 mmHg 86%
    07:00 +8°C° 0 mm 3 mps 753 mmHg 81%
    08:00 +10°C° 0 mm 3 mps 753 mmHg 76%
    09:00 +11°C° 0 mm 3 mps 753 mmHg 71%
    10:00 +13°C° 0 mm 2 mps 753 mmHg 64%
    11:00 +15°C° 0 mm 2 mps 753 mmHg 58%
    12:00 +16°C° 0 mm 1 mps 753 mmHg 51%
    13:00 +16°C° 0.2 mm 2 mps 753 mmHg 52%
    14:00 +16°C° 0.2 mm 3 mps 753 mmHg 53%
    15:00 +16°C° 0.2 mm 3 mps 753 mmHg 54%
    16:00 +14°C° 0.1 mm 4 mps 754 mmHg 59%
    17:00 +13°C° 0.1 mm 4 mps 754 mmHg 64%
    18:00 +12°C° 0.1 mm 4 mps 754 mmHg 68%
    19:00 +11°C° 0.1 mm 4 mps 755 mmHg 73%
    20:00 +10°C° 0.1 mm 4 mps 755 mmHg 77%
    21:00 +8°C° 0.1 mm 5 mps 756 mmHg 82%
    22:00 +7°C° 0.1 mm 4 mps 756 mmHg 83%
    23:00 +8°C° 0.1 mm 3 mps 756 mmHg 84%

    27 April, Saturday

    Time Temperature Precipitation Wind Pressure Humidity
    00:00 +8°C° 0.1 mm 2 mps 756 mmHg 85%
    01:00 +8°C° 0.4 mm 2 mps 756 mmHg 86%
    02:00 +8°C° 0.4 mm 2 mps 756 mmHg 88%
    03:00 +7°C° 0.4 mm 2 mps 756 mmHg 89%
    04:00 +6°C° 0.4 mm 4 mps 757 mmHg 86%
    05:00 +6°C° 0.4 mm 5 mps 757 mmHg 83%
    06:00 +5°C° 0.4 mm 6 mps 758 mmHg 80%
    07:00 +6°C° 0 mm 7 mps 759 mmHg 75%
    08:00 +7°C° 0 mm 8 mps 760 mmHg 70%
    09:00 +9°C° 0 mm 8 mps 761 mmHg 64%
    10:00 +9°C° 0 mm 8 mps 761 mmHg 61%
    11:00 +8°C° 0 mm 9 mps 762 mmHg 59%
    12:00 +10°C° 0 mm 9 mps 763 mmHg 56%
    13:00 +10°C° 0 mm 8 mps 763 mmHg 55%
    14:00 +10°C° 0 mm 8 mps 764 mmHg 54%
    15:00 +10°C° 0 mm 7 mps 764 mmHg 54%
    16:00 +9°C° 0 mm 6 mps 765 mmHg 55%
    17:00 +9°C° 0 mm 5 mps 765 mmHg 57%
    18:00 +10°C° 0 mm 4 mps 766 mmHg 59%
    19:00 +9°C° 0 mm 3 mps 766 mmHg 60%
    20:00 +9°C° 0 mm 3 mps 767 mmHg 62%
    21:00 +8°C° 0 mm 3 mps 767 mmHg 64%
    22:00 +8°C° 0 mm 3 mps 767 mmHg 68%
    23:00 +8°C° 0 mm 3 mps 767 mmHg 72%

    28 April, Sunday

    Time Temperature Precipitation Wind Pressure Humidity
    00:00 +8°C° 0 mm 3 mps 767 mmHg 76%
    01:00 +8°C° 0.2 mm 3 mps 766 mmHg 78%
    02:00 +8°C° 0.2 mm 3 mps 766 mmHg 81%
    03:00 +8°C° 0.2 mm 3 mps 765 mmHg 83%
    04:00 +8°C° 0 mm 3 mps 765 mmHg 84%
    05:00 +9°C° 0 mm 3 mps 764 mmHg 86%
    06:00 +9°C° 0 mm 3 mps 764 mmHg 87%
    07:00 +10°C° 0 mm 4 mps 764 mmHg 83%
    08:00 +12°C° 0 mm 4 mps 763 mmHg 79%
    09:00 +14°C° 0 mm 4 mps 763 mmHg 74%
    10:00 +14°C° 0 mm 5 mps 763 mmHg 73%
    11:00 +14°C° 0 mm 5 mps 762 mmHg 72%
    12:00 +15°C° 0 mm 5 mps 762 mmHg 70%
    13:00 +15°C° 0 mm 6 mps 762 mmHg 69%
    14:00 +15°C° 0 mm 6 mps 761 mmHg 69%
    15:00 +16°C° 0 mm 6 mps 760 mmHg 68%
    16:00 +15°C° 0.1 mm 6 mps 760 mmHg 72%
    17:00 +14°C° 0.1 mm 5 mps 759 mmHg 76%
    18:00 +13°C° 0.1 mm 5 mps 759 mmHg 80%
    19:00 +12°C° 0.2 mm 5 mps 758 mmHg 82%
    20:00 +12°C° 0.2 mm 5 mps 758 mmHg 83%
    21:00 +12°C° 0.2 mm 5 mps 758 mmHg 85%
    22:00 +10°C° 0.4 mm 5 mps 757 mmHg 86%
    23:00 +11°C° 0.4 mm 4 mps 757 mmHg 87%
    Show more